TimeCST,TemperatureF,Dew PointF,Humidity,Sea Level PressureIn,VisibilityMPH,Wind Direction,Wind SpeedMPH,Gust SpeedMPH,PrecipitationIn,Events,Conditions,WindDirDegrees,DateUTC
12:15 AM,28.4,24.8,86,29.72,7.0,West,5.8,-,N/A,,Overcast,280,2013-01-19 06:15:00
12:35 AM,28.4,24.8,86,29.72,10.0,Calm,Calm,-,N/A,,Overcast,0,2013-01-19 06:35:00
12:55 AM,28.4,24.8,86,29.72,10.0,West,4.6,-,N/A,,Overcast,280,2013-01-19 06:55:00
1:15 AM,28.4,23.0,80,29.73,10.0,West,5.8,-,N/A,,Overcast,270,2013-01-19 07:15:00
1:35 AM,28.4,23.0,80,29.73,10.0,WNW,5.8,-,N/A,,Overcast,290,2013-01-19 07:35:00
1:55 AM,28.4,23.0,80,29.74,10.0,West,6.9,-,N/A,,Overcast,270,2013-01-19 07:55:00
2:15 AM,28.4,23.0,80,29.75,7.0,West,5.8,-,N/A,,Overcast,270,2013-01-19 08:15:00
2:35 AM,28.4,24.8,86,29.76,7.0,West,8.1,-,N/A,,Overcast,260,2013-01-19 08:35:00
2:55 AM,28.4,23.0,80,29.75,7.0,WNW,8.1,-,N/A,,Overcast,300,2013-01-19 08:55:00
3:15 AM,26.6,23.0,86,29.74,7.0,WNW,5.8,-,N/A,,Mostly Cloudy,300,2013-01-19 09:15:00
3:35 AM,26.6,23.0,86,29.73,7.0,West,3.5,-,N/A,,Scattered Clouds,280,2013-01-19 09:35:00
3:55 AM,26.6,23.0,86,29.73,7.0,Calm,Calm,-,N/A,,Clear,0,2013-01-19 09:55:00
4:15 AM,26.6,23.0,86,29.72,7.0,Calm,Calm,-,N/A,,Clear,0,2013-01-19 10:15:00
4:35 AM,24.8,23.0,93,29.71,5.0,Calm,Calm,-,N/A,,Mostly Cloudy,0,2013-01-19 10:35:00
4:55 AM,23.0,21.2,93,29.70,5.0,Calm,Calm,-,N/A,,Overcast,0,2013-01-19 10:55:00
5:15 AM,24.8,23.0,93,29.69,5.0,Calm,Calm,-,N/A,,Overcast,0,2013-01-19 11:15:00
5:35 AM,26.6,23.0,86,29.69,5.0,Calm,Calm,-,N/A,,Overcast,0,2013-01-19 11:35:00
5:55 AM,26.6,23.0,86,29.70,5.0,Calm,Calm,-,N/A,,Overcast,0,2013-01-19 11:55:00
6:55 AM,26.6,23.0,86,29.68,5.0,Calm,Calm,-,N/A,,Mostly Cloudy,0,2013-01-19 12:55:00
7:15 AM,24.8,23.0,93,29.67,5.0,Calm,Calm,-,N/A,,Scattered Clouds,0,2013-01-19 13:15:00
7:55 AM,26.6,23.0,86,29.66,4.0,SSE,5.8,-,N/A,,Overcast,160,2013-01-19 13:55:00
8:35 AM,26.6,23.0,86,29.64,5.0,SSE,3.5,-,N/A,,Scattered Clouds,160,2013-01-19 14:35:00
9:35 AM,28.4,26.6,93,29.65,7.0,Calm,Calm,-,N/A,,Clear,0,2013-01-19 15:35:00
9:55 AM,30.2,26.6,86,29.65,7.0,SSW,3.5,-,N/A,,Scattered Clouds,200,2013-01-19 15:55:00
10:15 AM,30.2,26.6,86,29.63,10.0,Calm,Calm,-,N/A,,Scattered Clouds,0,2013-01-19 16:15:00
10:35 AM,32.0,28.4,87,29.62,10.0,Calm,Calm,-,N/A,,Clear,0,2013-01-19 16:35:00
11:15 AM,33.8,28.4,81,29.58,10.0,SW,3.5,-,N/A,,Scattered Clouds,220,2013-01-19 17:15:00
11:35 AM,35.6,28.4,75,29.58,10.0,SW,6.9,-,N/A,,Mostly Cloudy,230,2013-01-19 17:35:00
11:55 AM,35.6,28.4,75,29.56,10.0,West,8.1,-,N/A,,Mostly Cloudy,260,2013-01-19 17:55:00
12:15 PM,35.6,28.4,75,29.55,10.0,WSW,5.8,-,N/A,,Mostly Cloudy,250,2013-01-19 18:15:00
12:35 PM,35.6,30.2,81,29.54,10.0,West,8.1,-,N/A,,Overcast,260,2013-01-19 18:35:00
12:55 PM,37.4,30.2,75,29.53,10.0,West,12.7,17.3,N/A,,Mostly Cloudy,260,2013-01-19 18:55:00
1:15 PM,35.6,28.4,75,29.52,10.0,West,9.2,16.1,N/A,,Overcast,260,2013-01-19 19:15:00
1:35 PM,35.6,30.2,81,29.51,10.0,SW,4.6,-,N/A,,Mostly Cloudy,230,2013-01-19 19:35:00
1:55 PM,35.6,30.2,81,29.51,10.0,WSW,9.2,-,N/A,,Mostly Cloudy,250,2013-01-19 19:55:00
2:15 PM,35.6,28.4,75,29.51,10.0,West,11.5,21.9,N/A,,Mostly Cloudy,260,2013-01-19 20:15:00
2:35 PM,35.6,28.4,75,29.51,10.0,West,17.3,24.2,N/A,,Overcast,280,2013-01-19 20:35:00
2:55 PM,33.8,28.4,81,29.51,10.0,West,11.5,21.9,N/A,,Mostly Cloudy,270,2013-01-19 20:55:00
3:15 PM,33.8,28.4,81,29.53,10.0,West,17.3,27.6,N/A,,Mostly Cloudy,270,2013-01-19 21:15:00
3:35 PM,32.0,26.6,80,29.54,1.5,West,12.7,27.6,N/A,Snow,Light Snow,270,2013-01-19 21:35:00
3:55 PM,30.2,28.4,93,29.54,1.8,West,10.4,16.1,N/A,Snow,Light Snow,260,2013-01-19 21:55:00
4:15 PM,30.2,26.6,86,29.53,10.0,WSW,6.9,-,N/A,,Overcast,250,2013-01-19 22:15:00
4:35 PM,32.0,26.6,80,29.51,10.0,SW,5.8,-,N/A,,Overcast,230,2013-01-19 22:35:00
4:55 PM,32.0,26.6,80,29.50,10.0,WSW,6.9,-,N/A,,Overcast,240,2013-01-19 22:55:00
5:15 PM,30.2,26.6,86,29.51,2.0,West,11.5,19.6,N/A,Snow,Light Snow,280,2013-01-19 23:15:00
5:35 PM,30.2,26.6,86,29.51,7.0,West,15.0,21.9,N/A,Snow,Light Snow,270,2013-01-19 23:35:00
5:55 PM,30.2,21.2,69,29.52,7.0,West,21.9,27.6,N/A,Snow,Light Snow,270,2013-01-19 23:55:00
6:15 PM,28.4,17.6,64,29.53,10.0,West,18.4,32.2,N/A,Snow,Light Snow,270,2013-01-20 00:15:00
6:35 PM,21.2,17.6,86,29.59,0.5,WNW,27.6,40.3,N/A,Snow,Snow,300,2013-01-20 00:35:00
6:55 PM,19.4,12.2,74,29.62,2.0,WNW,20.7,34.5,N/A,Snow,Light Snow,300,2013-01-20 00:55:00
7:15 PM,17.6,6.8,63,29.64,10.0,WNW,20.7,33.4,N/A,,Overcast,290,2013-01-20 01:15:00
7:35 PM,15.8,6.8,68,29.66,4.0,WNW,18.4,34.5,N/A,Snow,Light Snow,300,2013-01-20 01:35:00
7:55 PM,14.0,8.6,79,29.68,1.5,WNW,19.6,34.5,N/A,Snow,Light Snow,290,2013-01-20 01:55:00
8:15 PM,12.2,5.0,73,29.70,2.0,WNW,25.3,34.5,N/A,Snow,Light Snow,300,2013-01-20 02:15:00
8:35 PM,10.4,3.2,73,29.73,5.0,WNW,18.4,38.0,N/A,,Haze,290,2013-01-20 02:35:00
8:55 PM,10.4,-0.4,62,29.74,10.0,WNW,21.9,31.1,N/A,,Overcast,300,2013-01-20 02:55:00
9:15 PM,8.6,1.4,73,29.76,5.0,WNW,20.7,32.2,N/A,,Haze,300,2013-01-20 03:15:00
9:35 PM,8.6,1.4,73,29.77,5.0,WNW,19.6,31.1,N/A,,Haze,290,2013-01-20 03:35:00
9:55 PM,6.8,-0.4,72,29.80,4.0,West,23.0,28.8,N/A,,Haze,280,2013-01-20 03:55:00
10:15 PM,5.0,-2.2,72,29.82,10.0,WNW,20.7,27.6,N/A,,Overcast,290,2013-01-20 04:15:00
10:35 PM,5.0,-5.8,61,29.83,10.0,WNW,13.8,27.6,N/A,,Mostly Cloudy,300,2013-01-20 04:35:00
10:55 PM,5.0,-5.8,61,29.85,7.0,WNW,20.7,39.1,N/A,,Mostly Cloudy,300,2013-01-20 04:55:00
11:15 PM,3.2,-4.0,72,29.86,7.0,WNW,13.8,25.3,N/A,,Overcast,300,2013-01-20 05:15:00
11:35 PM,3.2,-5.8,66,29.87,7.0,NW,24.2,32.2,N/A,,Overcast,310,2013-01-20 05:35:00
11:55 PM,3.2,-5.8,66,29.88,7.0,WNW,16.1,26.5,N/A,,Mostly Cloudy,290,2013-01-20 05:55:00